Regional Weather Roundup
Issued by NWS Newport/Morehead, NC

Current Version | Previous Version | Graphics & Text | Print | Product List | Glossary On
Versions: 1 2 3 4 5 6 7 8 9 10 11 12 13 14 15 16 17 18 19 20 21 22 23 24 25 26 27 28 29 30 31 32 33 34 35 36 37 38 39 40 41 42 43 44 45 46 47 48 49 50
865 ASUS42 KMHX 260325 RWRMHX WEATHER ROUNDUP FOR EASTERN NORTH CAROLINA NATIONAL WEATHER SERVICE NEWPORT/MOREHEAD CITY NC 1100 PM EDT WED APR 25 2018 NOTE: "FAIR" INDICATES FEW OR NO CLOUDS BELOW 12,000 FEET WITH NO SIGNIFICANT WEATHER AND/OR OBSTRUCTIONS TO VISIBILITY NCZ015>017-031-032-045>047-102-103-260400- NORTH COAST CITY SKY/WX TMP DP RH WIND PRES REMARKS EDENTON FAIR 64 61 91 W5 29.78R ELIZABETH CITY FAIR 59 59 100 W5 29.75S KITTY HAWK FAIR 60 60 100 CALM 29.74S MANTEO NOT AVBL $$ NCZ045>047-081-094-103-104-260400- CENTRAL COAST CITY SKY/WX TMP DP RH WIND PRES REMARKS FRISCO FAIR 66 61 84 W7 29.76S $$ NCZ095-097-098-100-101-260400- SOUTHERN COAST CITY SKY/WX TMP DP RH WIND PRES REMARKS BEAUFORT FAIR 63 57 81 W5 29.80R CEDAR ISLAND NOT AVBL JACKSONVILLE FAIR 61 57 87 SW5 29.81R PINEY ISLAND NOT AVBL WILMINGTON FAIR 61 57 87 CALM 29.82S $$ NCZ011>013-027>030-043-044-078>080-089-090>093-098-260400- COASTAL PLAIN CITY SKY/WX TMP DP RH WIND PRES REMARKS AHOSKIE CLOUDY 58 58 100 CALM 29.78S FOG CLINTON FAIR 58 58 100 CALM 29.82S ELIZABETHTOWN FAIR 61 57 88 MISG 29.83S GOLDSBORO FAIR 59 56 91 CALM 29.79R GREENVILLE FAIR 59 59 100 CALM 29.82S HAVELOCK NOT AVBL KENANSVILLE FAIR 55 55 100 CALM 29.81F KINSTON FAIR 56 55 99 CALM 29.81S NEW BERN FAIR 59 57 93 SW3 29.81R RICHLANDS FAIR 57 56 96 CALM 29.82R ROCKY MOUNT FAIR 53 53 100 S3 29.80R WASHINGTON FAIR 60 57 91 CALM 29.79S WHITEVILLE FAIR 60 58 91 CALM 29.82S $$ AMZ130-135-150-152-154-156-158-170-250-252-270-ANZ085-086-088-633-658-670-260400- MARINE OBSERVATIONS STATION/POSITION TIME TEMP WIND PRES WAVE SWELL AIR SEA DIR/SP/G HT/PER HT/PER (UTC) (F) (DEG/KT/KT) (MB) (FT/S) (FT/S) CHESAPEAKE LIGHT NOT AVBL 64 E VA BEACH 0250 54 51 250/ 8/ 12 1006.9 8/10 8/10 DUCK 0300 62 51 260/ 5/ 5 1006.7 2 E DUCK 0300 53 N/A 5/10 2/11 OREGON INLET 0300 62 61 260/ 3/ 3 1007.1 13E OREGON INLT 0248 54 N/A 6/10 7/10 HATTERAS CG 0300 66 67 270/ 10/ 12 1007.7 DIAMOND BUOY 0310 68 70 260/ 14/ 19 1008.2 CAPE LOOKOUT 0300 250/ 7/ 7 1009.5 BEAUFORT LAB 0300 64 65 280/ 2/ 4 1009.3 30 SE NEW RVR IN 0308 66 66 280/ 8/ 12 1007.3 30 SE NEW RVR IN 0300 66 N/A 5/ 9 2/11 27 SE WRIGHTSVLE 0308 65 66 250/ 10/ 14 1010.0 5 SE WRIGHTSVLE 0308 65 63 240/ 4/ 6 1008.9 225 S CAPE HAT 0310 69 73 230/ 14/ 17 1011.7 41 SE CHARLESTON 0310 69 230/ 12/ 16 1011.0 $$

USA.gov is the U.S. government's official web portal to all federal, state and local government web resources and services.